CW3001 Weather Reports


time (UTC)temp
F
wind
direction
speed
knots
gust
knots
rain 1hr
in
rain 24hr
in
rain mn
in
humidity
%
barometer
mb
20200531080604 66 82 12.2 17.4 0.00 0.00 0.00 50 1023.2
20200531080106 66 80 10.4 15.6 0.00 0.00 0.00 50 1023.2
20200531075604 65 95 7.0 11.3 0.00 0.00 0.00 50 1023.2
20200531075104 65 118 7.8 11.3 0.00 0.00 0.00 51 1023.2
20200531074605 65 116 8.7 12.2 0.00 0.00 0.00 51 1023.2
20200531074104 65 87 6.1 13.0 0.00 0.00 0.00 51 1023.2
20200531073605 65 105 7.8 13.0 0.00 0.00 0.00 51 1023.2
20200531073104 64 96 8.7 12.2 0.00 0.00 0.00 51 1023.2
20200531072605 64 92 6.1 15.6 0.00 0.00 0.00 52 1023.2
20200531072105 64 95 7.8 13.0 0.00 0.00 0.00 53 1023.2
20200531071605 64 98 5.2 10.4 0.00 0.00 0.00 55 1023.1
20200531071104 64 110 7.0 12.2 0.00 0.00 0.00 56 1023.1
20200531070604 63 106 6.1 13.0 0.00 0.00 0.00 55 1023.1
20200531070105 63 88 7.0 13.0 0.00 0.00 0.00 55 1023.0
20200531065605 63 91 7.8 11.3 0.00 0.00 0.00 55 1023.1
20200531065104 63 101 7.8 11.3 0.00 0.00 0.00 55 1023.1
20200531064605 63 82 3.5 10.4 0.00 0.00 0.00 57 1023.1
20200531064104 63 99 5.2 10.4 0.00 0.00 0.00 57 1023.1
20200531063604 62 79 5.2 7.8 0.00 0.00 0.00 58 1023.1
20200531063104 62 98 6.1 10.4 0.00 0.00 0.00 58 1023.0
20200531062605 62 87 5.2 10.4 0.00 0.00 0.00 58 1023.1
20200531062105 61 86 4.3 12.2 0.00 0.00 0.00 59 1023.1
20200531061604 61 89 6.1 11.3 0.00 0.00 0.00 58 1023.1
20200531061105 61 107 6.1 11.3 0.00 0.00 0.00 59 1023.0
20200531060604 61 100 4.3 7.0 0.00 0.00 0.00 60 1023.1
20200531060105 60 95 2.6 7.8 0.00 0.00 0.00 62 1023.1
20200531055604 60 85 6.1 7.0 0.00 0.00 0.00 63 1023.1
20200531055105 60 91 2.6 7.0 0.00 0.00 0.00 63 1023.1
20200531054604 59 98 5.2 7.8 0.00 0.00 0.00 63 1023.1
20200531054104 59 78 4.3 7.8 0.00 0.00 0.00 64 1023.1
20200531053605 59 94 1.7 6.1 0.00 0.00 0.00 65 1023.1
20200531053105 58 90 4.3 8.7 0.00 0.00 0.00 65 1023.0
20200531052604 58 75 2.6 8.7 0.00 0.00 0.00 66 1023.0
20200531052106 58 88 4.3 6.1 0.00 0.00 0.00 66 1023.0
20200531051605 57 76 2.6 7.0 0.00 0.00 0.00 66 1022.9
20200531051105 57 83 2.6 6.1 0.00 0.00 0.00 67 1022.9
20200531050604 57 79 2.6 6.1 0.00 0.00 0.00 69 1022.9
20200531050105 56 89 2.6 6.1 0.00 0.00 0.00 69 1022.8
20200531045604 56 58 1.7 4.3 0.00 0.00 0.00 70 1022.8
20200531045105 55 78 2.6 4.3 0.00 0.00 0.00 71 1022.8
20200531044604 54 69 2.6 4.3 0.00 0.00 0.00 73 1022.8
20200531044104 54 78 2.6 4.3 0.00 0.00 0.00 74 1022.8
20200531043604 53 73 2.6 4.3 0.00 0.00 0.00 76 1022.8
20200531043104 52 71 1.7 2.6 0.00 0.00 0.00 77 1022.8
20200531042604 51 75 1.7 2.6 0.00 0.00 0.00 78 1022.8
20200531042105 51 66 1.7 2.6 0.00 0.00 0.00 78 1022.8
20200531041604 51 70 0.9 1.7 0.00 0.00 0.00 77 1022.8
20200531041104 51 70 0.9 1.7 0.00 0.00 0.00 77 1022.8
20200531040605 51 70 0.9 2.6 0.00 0.00 0.00 78 1022.7
20200531040104 51 70 0.9 2.6 0.00 0.00 0.00 78 1022.7
20200531035604 51 70 0.9 2.6 0.00 0.00 0.00 78 1022.7
20200531035104 51 73 1.7 2.6 0.00 0.00 0.00 77 1022.7
20200531034604 51 74 0.9 2.6 0.00 0.00 0.00 77 1022.7
20200531034104 51 74 0.9 2.6 0.00 0.00 0.00 76 1022.6
20200531033604 51 82 1.7 2.6 0.00 0.00 0.00 76 1022.6
20200531033104 51 74 1.7 2.6 0.00 0.00 0.00 75 1022.6
20200531032605 51 75 0.9 2.6 0.00 0.00 0.00 75 1022.6
20200531032104 51 72 0.9 2.6 0.00 0.00 0.00 75 1022.6
20200531031604 51 78 0.9 2.6 0.00 0.00 0.00 75 1022.6
20200531031104 51 78 1.7 2.6 0.00 0.00 0.00 75 1022.5
20200531030605 51 76 1.7 2.6 0.00 0.00 0.00 75 1022.5
20200531030104 51 63 2.6 4.3 0.00 0.00 0.00 76 1022.5
20200531025604 51 69 1.7 2.6 0.00 0.00 0.00 76 1022.4
20200531025104 51 67 1.7 2.6 0.00 0.00 0.00 76 1022.4
20200531024604 51 68 0.9 2.6 0.00 0.00 0.00 75 1022.4
20200531024104 51 91 1.7 2.6 0.00 0.00 0.00 75 1022.4
20200531023604 51 91 0.9 2.6 0.00 0.00 0.00 74 1022.4
20200531023105 52 93 0.9 1.7 0.00 0.00 0.00 74 1022.4
20200531022604 52 94 0.9 1.7 0.00 0.00 0.00 73 1022.4
20200531022104 52 94 0.9 1.7 0.00 0.00 0.00 73 1022.4
20200531021604 53 94 0.9 1.7 0.00 0.00 0.00 72 1022.4
20200531021105 53 94 0.9 2.6 0.00 0.00 0.00 71 1022.5
20200531020605 53 96 1.7 2.6 0.00 0.00 0.00 70 1022.5
20200531020105 53 92 1.7 2.6 0.00 0.00 0.00 70 1022.5
20200531015604 53 67 1.7 2.6 0.00 0.00 0.00 70 1022.5
20200531015105 53 67 1.7 2.6 0.00 0.00 0.00 70 1022.5
20200531014604 54 73 1.7 4.3 0.00 0.00 0.00 70 1022.6
20200531014104 53 78 0.9 2.6 0.00 0.00 0.00 70 1022.5
20200531013606 53 74 1.7 5.2 0.00 0.00 0.00 70 1022.5
20200531013106 53 59 2.6 5.2 0.00 0.00 0.00 72 1022.6
20200531012606 53 72 1.7 2.6 0.00 0.00 0.00 72 1022.5
20200531012106 53 66 1.7 2.6 0.00 0.00 0.00 72 1022.5
20200531011606 53 67 0.9 1.7 0.00 0.00 0.00 71 1022.5
20200531011107 53 67 0.9 1.7 0.00 0.00 0.00 71 1022.4
20200531010606 53 67 0.9 1.7 0.00 0.00 0.00 71 1022.4
20200531010106 54 67 0.9 2.6 0.00 0.00 0.00 71 1022.5
20200531005607 54 67 1.7 2.6 0.00 0.00 0.00 71 1022.5
20200531005106 54 77 1.7 2.6 0.00 0.00 0.00 69 1022.5
20200531004606 54 77 1.7 2.6 0.00 0.00 0.00 68 1022.5
20200531004107 55 77 0.9 1.7 0.00 0.00 0.00 68 1022.5
20200531003607 55 77 0.9 2.6 0.00 0.00 0.00 67 1022.5
20200531003106 55 75 1.7 2.6 0.00 0.00 0.00 66 1022.5
20200531002606 56 73 0.9 2.6 0.00 0.00 0.00 65 1022.4
20200531002106 56 72 1.7 2.6 0.00 0.00 0.00 64 1022.4
20200531001606 56 72 1.7 2.6 0.00 0.00 0.00 63 1022.4
20200531001106 56 72 1.7 2.6 0.00 0.00 0.00 63 1022.4
20200531000610 57 74 1.7 2.6 0.00 0.00 0.00 63 1022.4
20200531000106 57 79 1.7 2.6 0.00 0.00 0.00 62 1022.4
20200530235606 58 81 1.7 2.6 0.00 0.00 0.00 59 1022.3
20200530235106 59 93 1.7 4.3 0.00 0.00 0.00 55 1022.3
20200530234607 59 89 1.7 4.3 0.00 0.00 0.00 54 1022.4
20200530234106 60 87 1.7 4.3 0.00 0.00 0.00 53 1022.4
20200530233607 60 89 1.7 2.6 0.00 0.00 0.00 52 1022.4
20200530233106 61 84 2.6 5.2 0.00 0.00 0.00 51 1022.4
20200530232606 61 95 2.6 5.2 0.00 0.00 0.00 51 1022.3
20200530232106 61 107 1.7 4.3 0.00 0.00 0.00 51 1022.3
20200530231606 61 120 1.7 6.1 0.00 0.00 0.00 51 1022.3
20200530231106 61 126 2.6 5.2 0.00 0.00 0.00 50 1022.3
20200530230606 62 124 2.6 4.3 0.00 0.00 0.00 50 1022.3
20200530230107 62 131 2.6 4.3 0.00 0.00 0.00 49 1022.4
20200530225606 62 111 2.6 5.2 0.00 0.00 0.00 49 1022.4
20200530225106 62 105 2.6 5.2 0.00 0.00 0.00 49 1022.4
20200530224606 62 114 2.6 6.1 0.00 0.00 0.00 49 1022.4
20200530224106 63 118 4.3 6.1 0.00 0.00 0.00 48 1022.3
20200530223606 63 125 2.6 4.3 0.00 0.00 0.00 48 1022.3
20200530223106 63 120 4.3 7.0 0.00 0.00 0.00 48 1022.3
20200530222606 63 128 2.6 7.0 0.00 0.00 0.00 48 1022.2
20200530222106 63 127 4.3 7.0 0.00 0.00 0.00 47 1022.2
20200530221606 64 126 2.6 8.7 0.00 0.00 0.00 47 1022.2
20200530221106 64 121 4.3 7.8 0.00 0.00 0.00 47 1022.2
20200530220606 64 119 4.3 7.0 0.00 0.00 0.00 47 1022.2
20200530220106 64 124 4.3 7.8 0.00 0.00 0.00 47 1022.2
20200530215606 64 119 5.2 11.3 0.00 0.00 0.00 47 1022.2
20200530215106 64 110 6.1 11.3 0.00 0.00 0.00 47 1022.2
20200530214606 64 109 6.1 11.3 0.00 0.00 0.00 47 1022.2
20200530214106 64 101 5.2 8.7 0.00 0.00 0.00 47 1022.1
20200530213606 64 103 3.5 7.8 0.00 0.00 0.00 46 1022.1
20200530213106 65 100 2.6 5.2 0.00 0.00 0.00 46 1022.1
20200530212606 65 111 4.3 5.2 0.00 0.00 0.00 45 1022.1
20200530211606 65 119 5.2 10.4 0.00 0.00 0.00 45 1022.0
20200530211106 65 114 5.2 8.7 0.00 0.00 0.00 45 1022.0
20200530210608 65 116 4.3 7.8 0.00 0.00 0.00 44 1022.0
20200530210106 65 99 2.6 6.1 0.00 0.00 0.00 44 1022.0
20200530205607 65 115 4.3 8.7 0.00 0.00 0.00 43 1022.0
20200530205106 66 100 4.3 7.8 0.00 0.00 0.00 43 1021.9
20200530204606 66 106 4.3 7.8 0.00 0.00 0.00 43 1021.8
20200530204106 66 107 4.3 7.8 0.00 0.00 0.00 42 1021.8
20200530203606 66 119 4.3 7.8 0.00 0.00 0.00 42 1021.8
20200530203106 66 112 5.2 7.8 0.00 0.00 0.00 41 1021.8
20200530202606 66 103 6.1 8.7 0.00 0.00 0.00 42 1021.8
20200530202106 66 99 6.1 13.0 0.00 0.00 0.00 43 1021.7
20200530201606 65 85 4.3 6.1 0.00 0.00 0.00 44 1021.6
20200530201106 66 86 2.6 6.1 0.00 0.00 0.00 43 1021.5
20200530200606 66 85 2.6 6.1 0.00 0.00 0.00 43 1021.4
20200530200107 67 89 2.6 6.1 0.00 0.00 0.00 42 1021.3
20200530195607 67 88 4.3 6.1 0.00 0.00 0.00 42 1021.3
20200530195107 67 90 3.5 6.1 0.00 0.00 0.00 42 1021.2
20200530194605 68 96 3.5 7.8 0.00 0.00 0.00 41 1021.1
20200530194106 68 91 4.3 10.4 0.00 0.00 0.00 40 1021.1
20200530193606 68 88 5.2 8.7 0.00 0.00 0.00 40 1021.1
20200530193107 69 95 4.3 10.4 0.00 0.00 0.00 40 1021.0
20200530192606 69 91 2.6 7.0 0.00 0.00 0.00 40 1020.9
20200530192106 69 93 5.2 10.4 0.00 0.00 0.00 39 1020.8
20200530191606 70 92 2.6 7.0 0.00 0.00 0.00 39 1020.9
20200530191106 70 92 3.5 7.0 0.00 0.00 0.00 38 1020.8
20200530190606 70 81 4.3 7.0 0.00 0.00 0.00 38 1020.8
20200530190107 70 88 4.3 7.8 0.00 0.00 0.00 38 1020.8
20200530185606 71 85 4.3 11.3 0.00 0.00 0.00 37 1020.7
20200530185106 71 89 7.0 10.4 0.00 0.00 0.00 38 1020.7
20200530184606 71 96 6.1 10.4 0.00 0.00 0.00 37 1020.8
20200530184105 71 97 7.0 13.0 0.00 0.00 0.00 37 1020.8
20200530183606 71 83 4.3 10.4 0.00 0.00 0.00 38 1020.8
20200530183106 71 91 6.1 11.3 0.00 0.00 0.00 36 1020.8
20200530182606 71 77 7.8 12.2 0.00 0.00 0.00 37 1020.8
20200530182106 71 83 7.8 12.2 0.00 0.00 0.00 37 1020.8
20200530181606 71 75 5.2 11.3 0.00 0.00 0.00 37 1020.8
20200530181106 72 108 5.2 13.9 0.00 0.00 0.00 36 1020.9
20200530180606 72 78 7.0 13.0 0.00 0.00 0.00 37 1020.9
20200530180107 72 72 7.0 12.2 0.00 0.00 0.00 37 1020.8
20200530175606 72 110 6.1 11.3 0.00 0.00 0.00 36 1020.8
20200530175106 72 98 7.0 10.4 0.00 0.00 0.00 35 1020.8
20200530174606 73 73 7.8 13.9 0.00 0.00 0.00 35 1020.8
20200530174106 73 87 6.1 12.2 0.00 0.00 0.00 35 1020.8
20200530173606 73 85 6.1 13.0 0.00 0.00 0.00 35 1020.8
20200530173106 73 100 5.2 13.0 0.00 0.00 0.00 35 1020.8
20200530172606 73 99 7.8 12.2 0.00 0.00 0.00 36 1020.8
20200530172106 73 90 6.1 12.2 0.00 0.00 0.00 36 1020.8
20200530171606 73 84 7.8 13.0 0.00 0.00 0.00 35 1020.8
20200530171106 73 111 7.8 11.3 0.00 0.00 0.00 34 1020.9
20200530170606 74 110 6.1 12.2 0.00 0.00 0.00 34 1020.8
20200530170108 74 104 7.8 13.0 0.00 0.00 0.00 33 1020.8
20200530165606 74 105 4.3 10.4 0.00 0.00 0.00 35 1020.8
20200530165106 74 74 7.0 15.6 0.00 0.00 0.00 36 1020.9
20200530164606 74 85 8.7 14.8 0.00 0.00 0.00 34 1020.9
20200530164106 74 115 8.7 13.9 0.00 0.00 0.00 35 1020.9
20200530163606 74 109 6.1 12.2 0.00 0.00 0.00 33 1021.0
20200530163107 74 83 7.8 12.2 0.00 0.00 0.00 34 1021.0
20200530162605 75 88 4.3 13.0 0.00 0.00 0.00 34 1021.0
20200530162106 75 116 5.2 11.3 0.00 0.00 0.00 34 1021.1
20200530161606 74 96 5.2 11.3 0.00 0.00 0.00 35 1021.1
20200530161106 75 106 9.6 17.4 0.00 0.00 0.00 33 1021.2
20200530160606 75 112 2.6 8.7 0.00 0.00 0.00 34 1021.2
20200530160107 75 86 7.0 10.4 0.00 0.00 0.00 36 1021.2
20200530155605 75 99 4.3 10.4 0.00 0.00 0.00 34 1021.2
20200530155107 75 123 7.8 13.9 0.00 0.00 0.00 34 1021.3
20200530154607 75 118 5.2 12.2 0.00 0.00 0.00 35 1021.3
20200530154106 75 87 7.8 13.9 0.00 0.00 0.00 33 1021.4
20200530153606 76 98 7.8 11.3 0.00 0.00 0.00 35 1021.4
20200530153106 75 72 5.2 10.4 0.00 0.00 0.00 36 1021.4
20200530152606 75 84 6.1 10.4 0.00 0.00 0.00 33 1021.4
20200530152106 75 74 6.1 10.4 0.00 0.00 0.00 36 1021.4
20200530151606 75 118 8.7 17.4 0.00 0.00 0.00 33 1021.5
20200530151106 75 122 12.2 19.1 0.00 0.00 0.00 34 1021.5
20200530150606 75 76 8.7 13.0 0.00 0.00 0.00 34 1021.5
20200530150107 76 121 5.2 7.8 0.00 0.00 0.00 33 1021.5
20200530145606 76 69 5.2 13.0 0.00 0.00 0.00 36 1021.6
20200530145106 75 69 5.2 11.3 0.00 0.00 0.00 34 1021.5
20200530144606 75 75 7.8 13.9 0.00 0.00 0.00 35 1021.6
20200530144106 75 125 6.1 13.9 0.00 0.00 0.00 34 1021.6
20200530143606 74 104 7.8 13.0 0.00 0.00 0.00 34 1021.7
20200530143106 75 126 9.6 14.8 0.00 0.00 0.00 33 1021.8
20200530142606 74 124 7.8 14.8 0.00 0.00 0.00 34 1021.8
20200530142106 75 89 7.8 13.9 0.00 0.00 0.00 34 1021.8
20200530141606 76 113 9.6 13.9 0.00 0.00 0.00 34 1021.8
20200530141106 76 72 8.7 13.9 0.00 0.00 0.00 35 1021.8
20200530140606 76 61 7.0 12.2 0.00 0.00 0.00 36 1021.9
20200530140107 75 81 6.1 13.0 0.00 0.00 0.00 34 1021.9
20200530135606 75 129 9.6 14.8 0.00 0.00 0.00 34 1022.0
20200530135106 75 117 3.5 7.8 0.00 0.00 0.00 34 1021.9
20200530134606 75 96 2.6 7.8 0.00 0.00 0.00 33 1022.0
20200530134105 75 82 7.0 14.8 0.00 0.00 0.00 37 1022.1
20200530133606 74 85 6.1 13.9 0.00 0.00 0.00 36 1022.2
20200530133106 74 80 4.3 8.7 0.00 0.00 0.00 34 1022.3
20200530132606 74 96 7.8 13.9 0.00 0.00 0.00 37 1022.3
20200530132106 74 141 2.6 7.8 0.00 0.00 0.00 34 1022.3
20200530131606 74 131 7.0 15.6 0.00 0.00 0.00 35 1022.4
20200530131106 74 108 5.2 13.0 0.00 0.00 0.00 35 1022.4
20200530130606 74 133 1.7 7.0 0.00 0.00 0.00 36 1022.4
20200530130107 73 103 5.2 11.3 0.00 0.00 0.00 36 1022.4
20200530125606 73 115 8.7 13.9 0.00 0.00 0.00 35 1022.5
20200530125105 74 106 7.0 14.8 0.00 0.00 0.00 35 1022.5
20200530124606 74 134 2.6 8.7 0.00 0.00 0.00 37 1022.5
20200530124106 73 171 5.2 7.8 0.00 0.00 0.00 36 1022.6
20200530123606 73 126 3.5 11.3 0.00 0.00 0.00 37 1022.7
20200530123105 73 75 5.2 11.3 0.00 0.00 0.00 40 1022.7
20200530122606 73 132 3.5 10.4 0.00 0.00 0.00 36 1022.7
20200530122106 74 154 2.6 7.8 0.00 0.00 0.00 36 1022.8
20200530121605 74 92 7.8 12.2 0.00 0.00 0.00 36 1022.9
20200530121106 73 166 1.7 10.4 0.00 0.00 0.00 39 1022.8
20200530120606 73 90 7.0 13.9 0.00 0.00 0.00 37 1023.0
20200530120108 73 113 4.3 10.4 0.00 0.00 0.00 37 1023.0
20200530115605 73 89 5.2 10.4 0.00 0.00 0.00 37 1023.0
20200530115105 73 120 7.8 14.8 0.00 0.00 0.00 36 1023.1
20200530114605 72 117 5.2 13.0 0.00 0.00 0.00 37 1023.1
20200530114105 73 130 4.3 8.7 0.00 0.00 0.00 36 1023.1
20200530113606 72 99 8.7 15.6 0.00 0.00 0.00 37 1023.1
20200530113106 72 113 8.7 13.9 0.00 0.00 0.00 37 1023.2
20200530112606 72 96 6.1 14.8 0.00 0.00 0.00 38 1023.2
20200530112106 72 120 7.0 15.6 0.00 0.00 0.00 36 1023.3
20200530111605 72 196 4.3 8.7 0.00 0.00 0.00 38 1023.2
20200530111105 72 157 4.3 10.4 0.00 0.00 0.00 36 1023.3
20200530110605 72 174 5.2 8.7 0.00 0.00 0.00 36 1023.3
20200530110106 72 132 6.1 13.0 0.00 0.00 0.00 36 1023.4
20200530105605 72 130 11.3 14.8 0.00 0.00 0.00 37 1023.4
20200530105106 72 132 6.1 11.3 0.00 0.00 0.00 37 1023.4
20200530104607 71 117 4.3 10.4 0.00 0.00 0.00 37 1023.5
20200530104106 71 146 4.3 10.4 0.00 0.00 0.00 37 1023.6
20200530103607 71 127 7.8 19.1 0.00 0.00 0.00 36 1023.7
20200530103105 71 124 4.3 11.3 0.00 0.00 0.00 37 1023.6
20200530102605 71 146 3.5 13.9 0.00 0.00 0.00 38 1023.7
20200530102106 71 116 8.7 15.6 0.00 0.00 0.00 36 1023.8
20200530101606 71 117 7.0 12.2 0.00 0.00 0.00 37 1023.8
20200530101105 70 110 6.1 13.9 0.00 0.00 0.00 38 1023.8
20200530100606 70 96 7.8 15.6 0.00 0.00 0.00 39 1023.8
20200530100107 70 122 5.2 14.8 0.00 0.00 0.00 38 1023.9
20200530095605 70 116 9.6 18.2 0.00 0.00 0.00 38 1023.9
20200530095106 70 111 11.3 18.2 0.00 0.00 0.00 39 1023.9
20200530094605 71 104 9.6 14.8 0.00 0.00 0.00 37 1023.9
20200530093605 71 152 3.5 10.4 0.00 0.00 0.00 38 1023.9
20200530093105 70 163 4.3 10.4 0.00 0.00 0.00 39 1023.9
20200530092606 70 158 4.3 11.3 0.00 0.00 0.00 39 1023.9
20200530092106 70 117 4.3 13.9 0.00 0.00 0.00 39 1024.0
20200530091606 69 120 8.7 15.6 0.00 0.00 0.00 39 1024.0
20200530091105 69 127 6.1 10.4 0.00 0.00 0.00 38 1024.0
20200530090606 70 151 7.8 13.9 0.00 0.00 0.00 38 1024.1
20200530090106 70 127 7.0 12.2 0.00 0.00 0.00 39 1024.0
20200530085605 69 140 5.2 11.3 0.00 0.00 0.00 40 1024.1
20200530085106 69 132 6.1 13.9 0.00 0.00 0.00 40 1024.1
20200530084605 69 142 8.7 20.0 0.00 0.00 0.00 41 1024.2
20200530084106 69 126 8.7 13.0 0.00 0.00 0.00 42 1024.2
20200530083606 68 140 4.3 11.3 0.00 0.00 0.00 43 1024.2
20200530083105 68 129 7.8 10.4 0.00 0.00 0.00 44 1024.3
20200530082606 68 116 7.8 12.2 0.00 0.00 0.00 45 1024.3
20200530082105 68 121 2.6 11.3 0.00 0.00 0.00 46 1024.3
20200530081605 67 105 1.7 8.7 0.00 0.00 0.00 47 1024.3
20200530081106 67 140 6.1 14.8 0.00 0.00 0.00 45 1024.3